contact:dominique.lefevre@mio.osupytheas.fr, maurice.libes@osupytheas.fr, didier.mallarino@osupytheas.fr
Project:EMSO http://www.emso-fr.org/EMSO-France
Depth: 2436.0 m
Title:EMSO Ligure Ouest : Data MII capteur CSTAR
DateTime,Latitude,Longitude,Instrument_Serial,Reference_Counts,Signal_Counts,Corrected_Signal_raw_counts,Calculated_Beam_c_inverse_meters,Internal_thermistor_counts
DateTime,Latitude,Longitude,Instrument_Serial,Reference_Counts,Signal_Counts,Corrected_Signal_raw_counts,Calculated_Beam_c_inverse_meters,Internal_thermistor_counts
2023-07-01T00:01:33,42.805,6.029,CST-1368DR,4272,4759,11823,01.113,552
2023-07-01T00:04:34,42.805,6.029,CST-1368DR,4272,4759,11825,01.112,552
2023-07-01T00:07:36,42.805,6.029,CST-1368DR,4272,4759,11825,01.112,552
2023-07-01T00:10:38,42.805,6.029,CST-1368DR,4272,4758,11821,01.114,552
2023-07-01T00:13:39,42.805,6.029,CST-1368DR,4272,4759,11823,01.113,552
2023-07-01T00:16:41,42.805,6.029,CST-1368DR,4272,4758,11821,01.114,552
2023-07-01T00:19:42,42.805,6.029,CST-1368DR,4272,4758,11822,01.113,552
2023-07-01T00:22:44,42.805,6.029,CST-1368DR,4272,4758,11821,01.114,552
2023-07-01T00:25:45,42.805,6.029,CST-1368DR,4272,4758,11822,01.113,552
2023-07-01T00:28:47,42.805,6.029,CST-1368DR,4272,4759,11823,01.113,552
2023-07-01T00:31:49,42.805,6.029,CST-1368DR,4272,4757,11820,01.114,552
2023-07-01T00:34:50,42.805,6.029,CST-1368DR,4272,4757,11819,01.114,552
2023-07-01T00:37:52,42.805,6.029,CST-1368DR,4272,4751,11803,01.120,552
2023-07-01T00:40:53,42.805,6.029,CST-1368DR,4272,4758,11820,01.114,552
2023-07-01T00:43:55,42.805,6.029,CST-1368DR,4272,4757,11820,01.114,552
2023-07-01T00:46:56,42.805,6.029,CST-1368DR,4272,4756,11817,01.115,552
2023-07-01T00:49:58,42.805,6.029,CST-1368DR,4272,4757,11820,01.114,552
2023-07-01T00:53:00,42.805,6.029,CST-1368DR,4272,4757,11818,01.115,552
2023-07-01T00:56:01,42.805,6.029,CST-1368DR,4272,4757,11820,01.114,552
2023-07-01T00:59:03,42.805,6.029,CST-1368DR,4272,4756,11817,01.115,552
2023-07-01T01:02:04,42.805,6.029,CST-1368DR,4272,4757,11818,01.115,552
2023-07-01T01:05:06,42.805,6.029,CST-1368DR,4272,4757,11819,01.114,552
2023-07-01T01:08:08,42.805,6.029,CST-1368DR,4272,4757,11819,01.114,552
2023-07-01T01:11:09,42.805,6.029,CST-1368DR,4272,4758,11821,01.114,552
2023-07-01T01:14:11,42.805,6.029,CST-1368DR,4272,4756,11816,01.115,552
2023-07-01T01:17:12,42.805,6.029,CST-1368DR,4272,4756,11816,01.115,552
2023-07-01T01:20:14,42.805,6.029,CST-1368DR,4272,4757,11820,01.114,552
2023-07-01T01:23:15,42.805,6.029,CST-1368DR,4272,4757,11818,01.115,552
2023-07-01T01:26:17,42.805,6.029,CST-1368DR,4272,4757,11819,01.114,552
2023-07-01T01:29:19,42.805,6.029,CST-1368DR,4272,4755,11813,01.116,552
2023-07-01T01:32:20,42.805,6.029,CST-1368DR,4272,4757,11818,01.115,552
2023-07-01T01:35:22,42.805,6.029,CST-1368DR,4272,4758,11820,01.114,552
2023-07-01T01:38:23,42.805,6.029,CST-1368DR,4272,4757,11820,01.114,552
2023-07-01T01:41:25,42.805,6.029,CST-1368DR,4272,4756,11816,01.115,552
2023-07-01T01:44:26,42.805,6.029,CST-1368DR,4272,4751,11803,01.120,552
2023-07-01T01:47:28,42.805,6.029,CST-1368DR,4272,4758,11821,01.114,552
2023-07-01T01:50:30,42.805,6.029,CST-1368DR,4272,4758,11821,01.114,552
2023-07-01T01:53:31,42.805,6.029,CST-1368DR,4272,4757,11818,01.115,552
2023-07-01T01:56:33,42.805,6.029,CST-1368DR,4272,4758,11820,01.114,552
2023-07-01T01:59:34,42.805,6.029,CST-1368DR,4272,4759,11823,01.113,552
2023-07-01T02:02:36,42.805,6.029,CST-1368DR,4272,4758,11822,01.113,552
2023-07-01T02:05:37,42.805,6.029,CST-1368DR,4272,4757,11820,01.114,552
2023-07-01T02:08:39,42.805,6.029,CST-1368DR,4272,4757,11819,01.114,552
2023-07-01T02:11:41,42.805,6.029,CST-1368DR,4272,4758,11822,01.113,552
2023-07-01T02:14:42,42.805,6.029,CST-1368DR,4272,4758,11821,01.114,552
2023-07-01T02:17:44,42.805,6.029,CST-1368DR,4272,4758,11821,01.114,552
2023-07-01T02:20:45,42.805,6.029,CST-1368DR,4272,4759,11823,01.113,552
2023-07-01T02:23:47,42.805,6.029,CST-1368DR,4272,4754,11812,01.117,552
2023-07-01T02:26:49,42.805,6.029,CST-1368DR,4272,4757,11820,01.114,552
2023-07-01T02:29:50,42.805,6.029,CST-1368DR,4272,4758,11822,01.113,552
2023-07-01T02:32:52,42.805,6.029,CST-1368DR,4272,4758,11822,01.113,552
2023-07-01T02:35:53,42.805,6.029,CST-1368DR,4272,4758,11822,01.113,552
2023-07-01T02:38:55,42.805,6.029,CST-1368DR,4272,4757,11820,01.114,552
2023-07-01T02:41:56,42.805,6.029,CST-1368DR,4272,4757,11818,01.115,552
2023-07-01T02:44:58,42.805,6.029,CST-1368DR,4272,4759,11823,01.113,552
2023-07-01T02:48:00,42.805,6.029,CST-1368DR,4272,4759,11823,01.113,552
2023-07-01T02:51:01,42.805,6.029,CST-1368DR,4272,4757,11819,01.114,552
2023-07-01T02:54:03,42.805,6.029,CST-1368DR,4272,4757,11820,01.114,552
2023-07-01T02:57:04,42.805,6.029,CST-1368DR,4272,4759,11823,01.113,552
2023-07-01T03:00:06,42.805,6.029,CST-1368DR,4272,4758,11821,01.114,552
2023-07-01T03:03:08,42.805,6.029,CST-1368DR,4272,4758,11820,01.114,552
2023-07-01T03:06:09,42.805,6.029,CST-1368DR,4272,4757,11819,01.114,552
2023-07-01T03:09:11,42.805,6.029,CST-1368DR,4272,4758,11822,01.113,552
2023-07-01T03:12:12,42.805,6.029,CST-1368DR,4272,4758,11821,01.114,552
2023-07-01T03:15:14,42.805,6.029,CST-1368DR,4272,4756,11816,01.115,552
2023-07-01T03:18:15,42.805,6.029,CST-1368DR,4272,4757,11818,01.115,552
2023-07-01T03:21:17,42.805,6.029,CST-1368DR,4272,4757,11818,01.115,552
2023-07-01T03:24:19,42.805,6.029,CST-1368DR,4272,4757,11818,01.115,552
2023-07-01T03:27:20,42.805,6.029,CST-1368DR,4272,4757,11820,01.114,552
2023-07-01T03:30:22,42.805,6.029,CST-1368DR,4272,4757,11820,01.114,552
2023-07-01T03:33:23,42.805,6.029,CST-1368DR,4272,4756,11816,01.115,552
2023-07-01T03:36:25,42.805,6.029,CST-1368DR,4272,4757,11820,01.114,552
2023-07-01T03:39:26,42.805,6.029,CST-1368DR,4272,4758,11821,01.114,552
2023-07-01T03:42:28,42.805,6.029,CST-1368DR,4272,4757,11820,01.114,552
2023-07-01T03:45:30,42.805,6.029,CST-1368DR,4272,4756,11815,01.116,552
2023-07-01T03:48:31,42.805,6.029,CST-1368DR,4272,4757,11818,01.115,552
2023-07-01T03:51:33,42.805,6.029,CST-1368DR,4272,4757,11820,01.114,552
2023-07-01T03:54:34,42.805,6.029,CST-1368DR,4272,4757,11820,01.114,552
2023-07-01T03:57:36,42.805,6.029,CST-1368DR,4272,4757,11818,01.115,552
2023-07-01T04:00:37,42.805,6.029,CST-1368DR,4272,4757,11819,01.114,552
2023-07-01T04:03:39,42.805,6.029,CST-1368DR,4272,4757,11820,01.114,552
2023-07-01T04:06:41,42.805,6.029,CST-1368DR,4272,4757,11820,01.114,552
2023-07-01T04:09:42,42.805,6.029,CST-1368DR,4272,4757,11818,01.115,552
2023-07-01T04:12:44,42.805,6.029,CST-1368DR,4272,4757,11820,01.114,552
2023-07-01T04:15:45,42.805,6.029,CST-1368DR,4272,4758,11821,01.114,552
2023-07-01T04:18:47,42.805,6.029,CST-1368DR,4272,4757,11818,01.115,552
2023-07-01T04:21:49,42.805,6.029,CST-1368DR,4272,4756,11816,01.115,552
2023-07-01T04:24:50,42.805,6.029,CST-1368DR,4272,4757,11819,01.114,552
2023-07-01T04:27:52,42.805,6.029,CST-1368DR,4272,4757,11818,01.115,552
2023-07-01T04:30:55,42.805,6.029,CST-1368DR,4272,4757,11818,01.115,552
2023-07-01T04:33:57,42.805,6.029,CST-1368DR,4272,4756,11817,01.115,552
2023-07-01T04:36:58,42.805,6.029,CST-1368DR,4272,4757,11818,01.115,552
2023-07-01T04:40:00,42.805,6.029,CST-1368DR,4272,4757,11820,01.114,552
2023-07-01T04:43:02,42.805,6.029,CST-1368DR,4272,4757,11819,01.114,552
2023-07-01T04:46:03,42.805,6.029,CST-1368DR,4272,4757,11818,01.115,552
2023-07-01T04:49:05,42.805,6.029,CST-1368DR,4272,4756,11817,01.115,552
2023-07-01T04:52:06,42.805,6.029,CST-1368DR,4272,4757,11818,01.115,552
2023-07-01T04:55:08,42.805,6.029,CST-1368DR,4272,4757,11818,01.115,552
2023-07-01T04:58:10,42.805,6.029,CST-1368DR,4272,4757,11818,01.115,552
2023-07-01T05:01:11,42.805,6.029,CST-1368DR,4272,4756,11816,01.115,552
2023-07-01T05:04:13,42.805,6.029,CST-1368DR,4272,4758,11820,01.114,552
2023-07-01T05:07:14,42.805,6.029,CST-1368DR,4272,4758,11821,01.114,552
2023-07-01T05:10:16,42.805,6.029,CST-1368DR,4272,4758,11821,01.114,552
2023-07-01T05:13:17,42.805,6.029,CST-1368DR,4272,4756,11817,01.115,552
2023-07-01T05:16:19,42.805,6.029,CST-1368DR,4272,4757,11820,01.114,552
2023-07-01T05:19:21,42.805,6.029,CST-1368DR,4272,4757,11819,01.114,552
2023-07-01T05:22:22,42.805,6.029,CST-1368DR,4272,4755,11815,01.116,552
2023-07-01T05:25:24,42.805,6.029,CST-1368DR,4272,4756,11817,01.115,552
2023-07-01T05:28:25,42.805,6.029,CST-1368DR,4272,4757,11819,01.114,552
2023-07-01T05:31:27,42.805,6.029,CST-1368DR,4272,4757,11820,01.114,552
2023-07-01T05:34:28,42.805,6.029,CST-1368DR,4272,4758,11821,01.114,552
2023-07-01T05:37:30,42.805,6.029,CST-1368DR,4272,4757,11819,01.114,552
2023-07-01T05:40:32,42.805,6.029,CST-1368DR,4272,4758,11821,01.114,552
2023-07-01T05:43:33,42.805,6.029,CST-1368DR,4272,4758,11822,01.113,552
2023-07-01T05:46:35,42.805,6.029,CST-1368DR,4272,4759,11823,01.113,552
2023-07-01T05:49:36,42.805,6.029,CST-1368DR,4272,4757,11818,01.115,552
2023-07-01T05:52:38,42.805,6.029,CST-1368DR,4272,4759,11823,01.113,552
2023-07-01T05:55:40,42.805,6.029,CST-1368DR,4272,4758,11822,01.113,552
2023-07-01T05:58:41,42.805,6.029,CST-1368DR,4272,4757,11819,01.114,552
2023-07-01T06:01:43,42.805,6.029,CST-1368DR,4272,4757,11818,01.115,552
2023-07-01T06:04:44,42.805,6.029,CST-1368DR,4272,4757,11818,01.115,552
2023-07-01T06:07:46,42.805,6.029,CST-1368DR,4272,4758,11821,01.114,552
2023-07-01T06:10:47,42.805,6.029,CST-1368DR,4272,4758,11821,01.114,552
2023-07-01T06:13:49,42.805,6.029,CST-1368DR,4272,4757,11819,01.114,552
2023-07-01T06:16:51,42.805,6.029,CST-1368DR,4272,4758,11822,01.113,552
2023-07-01T06:19:52,42.805,6.029,CST-1368DR,4272,4758,11822,01.113,552
2023-07-01T06:22:54,42.805,6.029,CST-1368DR,4272,4758,11820,01.114,552
2023-07-01T06:25:55,42.805,6.029,CST-1368DR,4272,4758,11821,01.114,552
2023-07-01T06:28:57,42.805,6.029,CST-1368DR,4272,4758,11822,01.113,552
2023-07-01T06:31:58,42.805,6.029,CST-1368DR,4272,4759,11825,01.112,552
2023-07-01T06:35:00,42.805,6.029,CST-1368DR,4272,4757,11819,01.114,552
2023-07-01T06:38:02,42.805,6.029,CST-1368DR,4272,4758,11822,01.113,552
2023-07-01T06:41:03,42.805,6.029,CST-1368DR,4272,4759,11823,01.113,552
2023-07-01T06:44:05,42.805,6.029,CST-1368DR,4272,4758,11822,01.113,552
2023-07-01T06:47:06,42.805,6.029,CST-1368DR,4272,4757,11819,01.114,552
2023-07-01T06:50:08,42.805,6.029,CST-1368DR,4272,4758,11820,01.114,552
2023-07-01T06:53:10,42.805,6.029,CST-1368DR,4272,4757,11818,01.115,552
2023-07-01T06:56:11,42.805,6.029,CST-1368DR,4272,4759,11823,01.113,552
2023-07-01T06:59:13,42.805,6.029,CST-1368DR,4272,4758,11820,01.114,552
2023-07-01T07:02:14,42.805,6.029,CST-1368DR,4272,4758,11821,01.114,552
2023-07-01T07:05:16,42.805,6.029,CST-1368DR,4272,4758,11821,01.114,552
2023-07-01T07:08:17,42.805,6.029,CST-1368DR,4272,4758,11822,01.113,552
2023-07-01T07:11:19,42.805,6.029,CST-1368DR,4272,4755,11815,01.116,552
2023-07-01T07:14:21,42.805,6.029,CST-1368DR,4272,4759,11823,01.113,552
2023-07-01T07:17:22,42.805,6.029,CST-1368DR,4272,4758,11822,01.113,552
2023-07-01T07:20:24,42.805,6.029,CST-1368DR,4272,4759,11823,01.113,552
2023-07-01T07:23:25,42.805,6.029,CST-1368DR,4272,4758,11822,01.113,552
2023-07-01T07:26:27,42.805,6.029,CST-1368DR,4272,4759,11823,01.113,552
2023-07-01T07:29:28,42.805,6.029,CST-1368DR,4272,4757,11820,01.114,552
2023-07-01T07:32:30,42.805,6.029,CST-1368DR,4272,4758,11821,01.114,552
2023-07-01T07:35:32,42.805,6.029,CST-1368DR,4272,4755,11815,01.116,552
2023-07-01T07:38:33,42.805,6.029,CST-1368DR,4272,4759,11823,01.113,552
2023-07-01T07:41:35,42.805,6.029,CST-1368DR,4272,4757,11820,01.114,552
2023-07-01T07:44:36,42.805,6.029,CST-1368DR,4272,4758,11822,01.113,552
2023-07-01T07:47:38,42.805,6.029,CST-1368DR,4272,4759,11823,01.113,552
2023-07-01T07:50:40,42.805,6.029,CST-1368DR,4272,4758,11822,01.113,552
2023-07-01T07:53:41,42.805,6.029,CST-1368DR,4272,4759,11823,01.113,552
2023-07-01T07:56:43,42.805,6.029,CST-1368DR,4272,4757,11819,01.114,552
2023-07-01T07:59:44,42.805,6.029,CST-1368DR,4272,4758,11822,01.113,552
2023-07-01T08:02:46,42.805,6.029,CST-1368DR,4272,4758,11820,01.114,552
2023-07-01T08:05:47,42.805,6.029,CST-1368DR,4272,4759,11823,01.113,552
2023-07-01T08:08:49,42.805,6.029,CST-1368DR,4272,4759,11823,01.113,552
2023-07-01T08:11:51,42.805,6.029,CST-1368DR,4272,4758,11821,01.114,552
2023-07-01T08:14:52,42.805,6.029,CST-1368DR,4272,4759,11823,01.113,552
2023-07-01T08:17:54,42.805,6.029,CST-1368DR,4272,4760,11825,01.112,552
2023-07-01T08:20:55,42.805,6.029,CST-1368DR,4272,4759,11824,01.113,552
2023-07-01T08:23:57,42.805,6.029,CST-1368DR,4272,4758,11821,01.114,552
2023-07-01T08:26:58,42.805,6.029,CST-1368DR,4272,4759,11823,01.113,552
2023-07-01T08:30:00,42.805,6.029,CST-1368DR,4272,4759,11823,01.113,552
2023-07-01T08:33:02,42.805,6.029,CST-1368DR,4272,4758,11822,01.113,552
2023-07-01T08:36:04,42.805,6.029,CST-1368DR,4272,4759,11823,01.113,552
2023-07-01T08:39:05,42.805,6.029,CST-1368DR,4272,4758,11821,01.114,552
2023-07-01T08:42:07,42.805,6.029,CST-1368DR,4272,4759,11823,01.113,552
2023-07-01T08:45:08,42.805,6.029,CST-1368DR,4272,4759,11823,01.113,552
2023-07-01T08:48:10,42.805,6.029,CST-1368DR,4272,4759,11824,01.113,552
2023-07-01T08:51:11,42.805,6.029,CST-1368DR,4272,4758,11820,01.114,552
2023-07-01T08:54:13,42.805,6.029,CST-1368DR,4272,4757,11820,01.114,552
2023-07-01T08:57:15,42.805,6.029,CST-1368DR,4272,4759,11825,01.112,552
2023-07-01T09:00:16,42.805,6.029,CST-1368DR,4272,4759,11825,01.112,552
2023-07-01T09:03:18,42.805,6.029,CST-1368DR,4272,4758,11821,01.114,552
2023-07-01T09:06:19,42.805,6.029,CST-1368DR,4272,4759,11823,01.113,552
2023-07-01T09:09:21,42.805,6.029,CST-1368DR,4272,4759,11824,01.113,552
2023-07-01T09:12:23,42.805,6.029,CST-1368DR,4272,4759,11825,01.112,552
2023-07-01T09:15:24,42.805,6.029,CST-1368DR,4272,4759,11823,01.113,552
2023-07-01T09:18:26,42.805,6.029,CST-1368DR,4272,4759,11823,01.113,552
2023-07-01T09:21:27,42.805,6.029,CST-1368DR,4272,4760,11826,01.112,552
2023-07-01T09:24:29,42.805,6.029,CST-1368DR,4272,4759,11825,01.112,552
2023-07-01T09:27:30,42.805,6.029,CST-1368DR,4272,4758,11820,01.114,552
2023-07-01T09:30:32,42.805,6.029,CST-1368DR,4272,4758,11821,01.114,552
2023-07-01T09:33:34,42.805,6.029,CST-1368DR,4272,4759,11823,01.113,552
2023-07-01T09:36:35,42.805,6.029,CST-1368DR,4272,4759,11824,01.113,552
2023-07-01T09:39:37,42.805,6.029,CST-1368DR,4272,4758,11820,01.114,552
2023-07-01T09:42:38,42.805,6.029,CST-1368DR,4272,4758,11821,01.114,552
2023-07-01T09:45:40,42.805,6.029,CST-1368DR,4272,4758,11821,01.114,552
2023-07-01T09:48:41,42.805,6.029,CST-1368DR,4272,4759,11823,01.113,552
2023-07-01T09:51:43,42.805,6.029,CST-1368DR,4272,4758,11820,01.114,552
2023-07-01T09:54:45,42.805,6.029,CST-1368DR,4272,4758,11821,01.114,552
2023-07-01T09:57:46,42.805,6.029,CST-1368DR,4272,4759,11823,01.113,552
2023-07-01T10:00:48,42.805,6.029,CST-1368DR,4272,4759,11823,01.113,552
2023-07-01T10:03:49,42.805,6.029,CST-1368DR,4272,4757,11819,01.114,552
2023-07-01T10:06:51,42.805,6.029,CST-1368DR,4272,4760,11825,01.112,552
2023-07-01T10:09:53,42.805,6.029,CST-1368DR,4272,4758,11821,01.114,552
2023-07-01T10:12:54,42.805,6.029,CST-1368DR,4272,4759,11824,01.113,552
2023-07-01T10:15:56,42.805,6.029,CST-1368DR,4272,4757,11818,01.115,552
2023-07-01T10:18:57,42.805,6.029,CST-1368DR,4272,4759,11823,01.113,552
2023-07-01T10:21:59,42.805,6.029,CST-1368DR,4272,4758,11821,01.114,552
2023-07-01T10:25:00,42.805,6.029,CST-1368DR,4272,4759,11823,01.113,552
2023-07-01T10:28:02,42.805,6.029,CST-1368DR,4272,4758,11822,01.113,552
2023-07-01T10:31:05,42.805,6.029,CST-1368DR,4272,4759,11823,01.113,552
2023-07-01T10:34:06,42.805,6.029,CST-1368DR,4272,4759,11823,01.113,552
2023-07-01T10:37:08,42.805,6.029,CST-1368DR,4272,4759,11823,01.113,552
2023-07-01T10:40:09,42.805,6.029,CST-1368DR,4272,4759,11823,01.113,552
2023-07-01T10:43:11,42.805,6.029,CST-1368DR,4272,4758,11821,01.114,552
2023-07-01T10:46:13,42.805,6.029,CST-1368DR,4272,4759,11823,01.113,552
2023-07-01T10:49:14,42.805,6.029,CST-1368DR,4272,4759,11825,01.112,552
2023-07-01T10:52:16,42.805,6.029,CST-1368DR,4272,4759,11823,01.113,552
2023-07-01T10:55:17,42.805,6.029,CST-1368DR,4272,4758,11821,01.114,552
2023-07-01T10:58:19,42.805,6.029,CST-1368DR,4272,4760,11825,01.112,552
2023-07-01T11:01:20,42.805,6.029,CST-1368DR,4272,4758,11821,01.114,552
2023-07-01T11:04:22,42.805,6.029,CST-1368DR,4272,4759,11823,01.113,552
2023-07-01T11:07:24,42.805,6.029,CST-1368DR,4272,4758,11821,01.114,552
2023-07-01T11:10:25,42.805,6.029,CST-1368DR,4272,4758,11822,01.113,552
2023-07-01T11:13:27,42.805,6.029,CST-1368DR,4272,4759,11823,01.113,552
2023-07-01T11:16:28,42.805,6.029,CST-1368DR,4272,4758,11822,01.113,552
2023-07-01T11:19:30,42.805,6.029,CST-1368DR,4272,4757,11820,01.114,552
2023-07-01T11:22:31,42.805,6.029,CST-1368DR,4272,4759,11823,01.113,552
2023-07-01T11:25:33,42.805,6.029,CST-1368DR,4272,4758,11821,01.114,552
2023-07-01T11:28:35,42.805,6.029,CST-1368DR,4272,4758,11822,01.113,552
2023-07-01T11:31:36,42.805,6.029,CST-1368DR,4272,4758,11820,01.114,552
2023-07-01T11:34:38,42.805,6.029,CST-1368DR,4272,4759,11823,01.113,552
2023-07-01T11:37:39,42.805,6.029,CST-1368DR,4272,4756,11815,01.116,552
2023-07-01T11:40:41,42.805,6.029,CST-1368DR,4272,4758,11822,01.113,552
2023-07-01T11:43:43,42.805,6.029,CST-1368DR,4272,4758,11822,01.113,552
2023-07-01T11:46:44,42.805,6.029,CST-1368DR,4272,4758,11820,01.114,552
2023-07-01T11:49:46,42.805,6.029,CST-1368DR,4272,4757,11820,01.114,552
2023-07-01T11:52:47,42.805,6.029,CST-1368DR,4272,4758,11822,01.113,552
2023-07-01T11:55:49,42.805,6.029,CST-1368DR,4272,4758,11822,01.113,552
2023-07-01T11:58:50,42.805,6.029,CST-1368DR,4272,4760,11825,01.112,552
2023-07-01T12:01:52,42.805,6.029,CST-1368DR,4272,4758,11822,01.113,552
2023-07-01T12:04:54,42.805,6.029,CST-1368DR,4272,4758,11822,01.113,552
2023-07-01T12:07:55,42.805,6.029,CST-1368DR,4272,4758,11822,01.113,552
2023-07-01T12:10:57,42.805,6.029,CST-1368DR,4272,4759,11823,01.113,552
2023-07-01T12:13:58,42.805,6.029,CST-1368DR,4272,4759,11823,01.113,552
2023-07-01T12:17:00,42.805,6.029,CST-1368DR,4272,4758,11820,01.114,552
2023-07-01T12:20:01,42.805,6.029,CST-1368DR,4272,4758,11820,01.114,552
2023-07-01T12:23:03,42.805,6.029,CST-1368DR,4272,4758,11821,01.114,552
2023-07-01T12:26:05,42.805,6.029,CST-1368DR,4272,4758,11822,01.113,552
2023-07-01T12:29:06,42.805,6.029,CST-1368DR,4272,4758,11820,01.114,552
2023-07-01T12:32:08,42.805,6.029,CST-1368DR,4272,4758,11821,01.114,552
2023-07-01T12:35:09,42.805,6.029,CST-1368DR,4272,4758,11822,01.113,552
2023-07-01T12:38:11,42.805,6.029,CST-1368DR,4272,4757,11819,01.114,552
2023-07-01T12:41:13,42.805,6.029,CST-1368DR,4272,4758,11822,01.113,552
2023-07-01T12:44:14,42.805,6.029,CST-1368DR,4272,4758,11820,01.114,552
2023-07-01T12:47:16,42.805,6.029,CST-1368DR,4272,4758,11821,01.114,552
2023-07-01T12:50:17,42.805,6.029,CST-1368DR,4272,4759,11823,01.113,552
2023-07-01T12:53:19,42.805,6.029,CST-1368DR,4272,4759,11823,01.113,552
2023-07-01T12:56:20,42.805,6.029,CST-1368DR,4272,4757,11818,01.115,552
2023-07-01T12:59:22,42.805,6.029,CST-1368DR,4272,4758,11820,01.114,552
2023-07-01T13:02:24,42.805,6.029,CST-1368DR,4272,4759,11823,01.113,552
2023-07-01T13:05:25,42.805,6.029,CST-1368DR,4272,4758,11822,01.113,552
2023-07-01T13:08:27,42.805,6.029,CST-1368DR,4272,4759,11823,01.113,552
2023-07-01T13:11:28,42.805,6.029,CST-1368DR,4272,4755,11814,01.116,552
2023-07-01T13:14:30,42.805,6.029,CST-1368DR,4272,4752,11807,01.118,552
2023-07-01T13:17:31,42.805,6.029,CST-1368DR,4272,4756,11815,01.116,552
2023-07-01T13:20:33,42.805,6.029,CST-1368DR,4272,4756,11816,01.115,552
2023-07-01T13:23:35,42.805,6.029,CST-1368DR,4272,4748,11796,01.122,552
2023-07-01T13:26:36,42.805,6.029,CST-1368DR,4272,4757,11818,01.115,552
2023-07-01T13:29:38,42.805,6.029,CST-1368DR,4272,4758,11821,01.114,552
2023-07-01T13:32:39,42.805,6.029,CST-1368DR,4272,4756,11816,01.115,552
2023-07-01T13:35:41,42.805,6.029,CST-1368DR,4272,4756,11816,01.115,552
2023-07-01T13:38:43,42.805,6.029,CST-1368DR,4272,4757,11818,01.115,552
2023-07-01T13:41:44,42.805,6.029,CST-1368DR,4272,4757,11818,01.115,552
2023-07-01T13:44:46,42.805,6.029,CST-1368DR,4272,4757,11818,01.115,552
2023-07-01T13:47:47,42.805,6.029,CST-1368DR,4272,4756,11817,01.115,552
2023-07-01T13:50:49,42.805,6.029,CST-1368DR,4272,4756,11817,01.115,552
2023-07-01T13:53:50,42.805,6.029,CST-1368DR,4272,4757,11818,01.115,552
2023-07-01T13:56:52,42.805,6.029,CST-1368DR,4272,4757,11820,01.114,552
2023-07-01T13:59:54,42.805,6.029,CST-1368DR,4272,4757,11818,01.115,552
2023-07-01T14:02:55,42.805,6.029,CST-1368DR,4272,4754,11812,01.117,552
2023-07-01T14:05:57,42.805,6.029,CST-1368DR,4272,4756,11816,01.115,552
2023-07-01T14:08:58,42.805,6.029,CST-1368DR,4272,4757,11819,01.114,552
2023-07-01T14:12:00,42.805,6.029,CST-1368DR,4272,4756,11816,01.115,552
2023-07-01T14:15:01,42.805,6.029,CST-1368DR,4272,4755,11814,01.116,552
2023-07-01T14:18:03,42.805,6.029,CST-1368DR,4272,4756,11817,01.115,552
2023-07-01T14:21:05,42.805,6.029,CST-1368DR,4272,4757,11818,01.115,552
2023-07-01T14:24:06,42.805,6.029,CST-1368DR,4272,4757,11820,01.114,552
2023-07-01T14:27:08,42.805,6.029,CST-1368DR,4272,4755,11815,01.116,552
2023-07-01T14:30:10,42.805,6.029,CST-1368DR,4272,4754,11811,01.117,552
2023-07-01T14:33:12,42.805,6.029,CST-1368DR,4272,4757,11818,01.115,552
2023-07-01T14:36:13,42.805,6.029,CST-1368DR,4272,4757,11818,01.115,552
2023-07-01T14:39:15,42.805,6.029,CST-1368DR,4272,4756,11816,01.115,552
2023-07-01T14:42:16,42.805,6.029,CST-1368DR,4272,4756,11816,01.115,552
2023-07-01T14:45:18,42.805,6.029,CST-1368DR,4272,4757,11818,01.115,552
2023-07-01T14:48:19,42.805,6.029,CST-1368DR,4272,4757,11819,01.114,552
2023-07-01T14:51:21,42.805,6.029,CST-1368DR,4272,4756,11816,01.115,552
2023-07-01T14:54:23,42.805,6.029,CST-1368DR,4272,4756,11817,01.115,552
2023-07-01T14:57:24,42.805,6.029,CST-1368DR,4272,4755,11814,01.116,552
2023-07-01T15:00:26,42.805,6.029,CST-1368DR,4272,4756,11816,01.115,552
2023-07-01T15:03:27,42.805,6.029,CST-1368DR,4272,4756,11816,01.115,552
2023-07-01T15:06:29,42.805,6.029,CST-1368DR,4272,4756,11816,01.115,552
2023-07-01T15:09:31,42.805,6.029,CST-1368DR,4272,4756,11817,01.115,552
2023-07-01T15:12:32,42.805,6.029,CST-1368DR,4272,4757,11820,01.114,552
2023-07-01T15:15:34,42.805,6.029,CST-1368DR,4272,4756,11817,01.115,552
2023-07-01T15:18:35,42.805,6.029,CST-1368DR,4272,4756,11817,01.115,552
2023-07-01T15:21:37,42.805,6.029,CST-1368DR,4272,4757,11818,01.115,552
2023-07-01T15:24:38,42.805,6.029,CST-1368DR,4272,4756,11817,01.115,552
2023-07-01T15:27:40,42.805,6.029,CST-1368DR,4272,4756,11816,01.115,552
2023-07-01T15:30:42,42.805,6.029,CST-1368DR,4272,4756,11816,01.115,552
2023-07-01T15:33:43,42.805,6.029,CST-1368DR,4272,4756,11815,01.116,552
2023-07-01T15:36:45,42.805,6.029,CST-1368DR,4271,4750,11804,01.119,552
2023-07-01T15:39:46,42.805,6.029,CST-1368DR,4271,4751,11805,01.119,552
2023-07-01T15:42:48,42.805,6.029,CST-1368DR,4271,4752,11809,01.118,552
2023-07-01T15:45:49,42.805,6.029,CST-1368DR,4272,4752,11805,01.119,552
2023-07-01T15:48:51,42.805,6.029,CST-1368DR,4271,4752,11809,01.118,552
2023-07-01T15:51:53,42.805,6.029,CST-1368DR,4271,4751,11806,01.119,552
2023-07-01T15:54:54,42.805,6.029,CST-1368DR,4272,4752,11807,01.118,552
2023-07-01T15:57:56,42.805,6.029,CST-1368DR,4271,4752,11809,01.118,552
2023-07-01T16:00:57,42.805,6.029,CST-1368DR,4271,4753,11811,01.117,552
2023-07-01T16:03:59,42.805,6.029,CST-1368DR,4272,4751,11804,01.119,552
2023-07-01T16:07:01,42.805,6.029,CST-1368DR,4271,4753,11812,01.117,552
2023-07-01T16:10:02,42.805,6.029,CST-1368DR,4271,4753,11810,01.117,552
2023-07-01T16:13:04,42.805,6.029,CST-1368DR,4271,4753,11812,01.117,552
2023-07-01T16:16:05,42.805,6.029,CST-1368DR,4271,4751,11807,01.118,552
2023-07-01T16:19:07,42.805,6.029,CST-1368DR,4271,4753,11810,01.117,552
2023-07-01T16:22:08,42.805,6.029,CST-1368DR,4272,4753,11808,01.118,552
2023-07-01T16:25:10,42.805,6.029,CST-1368DR,4271,4753,11811,01.117,552
2023-07-01T16:28:12,42.805,6.029,CST-1368DR,4272,4754,11812,01.117,552
2023-07-01T16:31:14,42.805,6.029,CST-1368DR,4271,4753,11811,01.117,552
2023-07-01T16:34:15,42.805,6.029,CST-1368DR,4271,4752,11809,01.118,552
2023-07-01T16:37:17,42.805,6.029,CST-1368DR,4271,4753,11811,01.117,552